Tracking 19177 objects as of 25-May-2018
HD Live streaming from Space Station
objects crossing your sky now

NOAA 16 DEB

Track NOAA 16 DEB now!
10-day predictions


NORAD ID: 41128
Int'l Code: 2000-055BK
Perigee: 851.7 km
Apogee: 857.2 km
Inclination: 99.0 °
Period: 101.9 minutes
Semi major axis: 7225 km
RCS: Unknown
Launch date: September 21, 2000
Source: United States (US)
Launch site: AIR FORCE WESTERN TEST RANGE (AFWTR)

Note: This is SATELLITE DEBRIS
aabbcc
Your satellite tracking list
Your tracking list is empty




NASA's NSSDC Master Catalog

Two Line Element Set (TLE):
1 41128U 00055BK  18144.51328424  .00001068  00000-0  59126-3 0  9994
2 41128  99.0398 233.7132 0003759 299.3614  60.7182 14.13533478127389
Source of the keplerian elements: AFSPC